EHI
0 0 0 0 0 0 0 0 0 0 0 0 0 0 0 0 0 0 1 3 8 13 14 11 7 3 1 0 0 0 0 0 0 0 0 0 1 0 0 0 0 0 0
0 0 0 0 0 0 0 0 0 0 0 0 0 0 0 0 0 0 0 1 4 9 12 12 9 6 3 1 0 0 0 0 0 1 1 1 1 1 0 0 0 0 0
0 0 0 0 0 0 0 0 0 0 0 0 0 0 0 0 0 0 0 0 1 4 7 9 9 7 5 3 1 0 0 0 1 2 2 2 1 1 0 0 0 0 0
0 0 0 0 0 0 0 0 0 0 0 0 0 0 0 0 0 0 0 0 0 1 2 4 4 4 4 3 1 0 0 0 1 1 2 2 1 0 0 0 0 0 0
0 0 0 0 0 0 0 0 0 0 0 0 0 0 0 0 0 0 0 0 0 0 0 0 0 0 1 2 1 0 0 0 1 1 1 1 0 0 0 0 0 0 0
0 0 0 0 0 0 0 0 0 0 0 0 0 0 0 0 0 0 0 0 0 0 0 0 0 0 0 0 1 1 0 0 1 1 1 0 0 0 0 0 0 0 0
0 0 0 0 0 0 0 0 0 0 0 0 0 0 0 0 0 0 0 0 0 0 0 0 0 0 0 0 0 1 1 1 1 1 1 1 1 1 0 0 0 0 0
0 0 0 0 0 0 0 0 0 0 0 0 0 0 0 0 0 0 0 0 0 0 0 0 0 0 0 0 0 0 1 1 1 0 1 1 2 1 0 0 0 0 0
0 0 0 0 0 0 0 0 0 0 0 0 0 0 0 0 0 0 0 0 0 0 0 0 0 0 0 0 0 0 1 1 0 0 0 1 2 1 0 0 0 0 0
0 0 0 0 0 0 0 0 0 0 0 0 0 0 0 0 0 0 0 0 0 0 0 0 0 0 0 0 0 0 0 0 0 0 0 1 1 1 1 0 0 0 0
0 0 0 0 0 0 0 0 0 0 0 0 0 0 0 0 0 0 0 0 0 0 0 0 0 0 0 0 0 0 0 0 0 0 0 0 1 1 1 0 0 0 0
0 0 0 0 0 0 0 0 0 0 0 0 0 0 0 0 0 0 0 0 0 0 0 0 0 0 0 0 0 0 0 0 0 0 0 0 0 1 1 0 0 0 0
0 0 0 0 0 0 0 0 0 0 0 0 0 0 0 0 0 0 0 0 0 0 0 0 0 0 0 0 0 0 0 0 0 0 0 0 0 0 1 0 0 0 0
0 0 0 0 0 0 0 0 0 0 0 0 0 0 0 0 0 0 0 0 0 0 0 0 0 0 0 0 0 0 0 0 0 0 0 0 0 0 0 0 0 0 0
0 0 0 0 0 0 0 0 0 0 0 0 0 0 0 0 0 0 0 0 0 0 0 0 0 0 0 0 0 0 0 0 0 0 0 0 0 0 0 0 0 1 1
0 0 0 0 0 0 0 0 0 0 0 0 0 0 0 0 0 0 0 0 0 0 0 0 0 0 0 0 0 0 0 0 0 0 0 0 0 0 0 0 0 0 0
0 0 0 0 0 0 0 0 0 0 0 0 0 0 0 0 0 0 0 0 0 0 0 0 0 0 0 0 0 0 0 0 0 0 0 0 0 0 0 0 0 0 0
0 0 0 0 0 0 0 0 0 0 0 0 0 0 0 0 0 0 0 0 0 0 0 0 0 0 0 0 0 0 0 0 0 0 0 0 0 0 0 0 0 0 0
0 0 0 0 0 0 0 0 0 0 0 0 0 0 0 0 0 0 0 0 0 0 0 0 0 0 0 0 0 0 0 0 0 0 0 0 0 0 0 0 0 0 0
0 0 0 0 0 0 0 0 0 0 0 0 0 0 0 0 0 0 0 0 0 0 0 0 0 0 0 0 0 0 0 0 0 0 0 0 0 0 0 0 0 0 0
0 0 0 0 0 0 0 0 0 0 0 0 0 0 0 0 0 0 0 0 0 0 0 0 0 0 0 0 0 0 0 0 0 0 0 0 0 0 0 0 0 0 0
0 0 0 0 0 0 0 0 0 0 0 0 0 0 0 0 0 0 0 0 0 0 0 0 0 0 0 0 0 0 0 0 0 0 0 0 0 0 0 0 0 0 0
0 0 0 0 0 0 0 0 0 0 0 0 0 0 0 0 0 0 0 0 0 0 0 0 0 0 0 0 0 0 0 0 0 0 0 0 0 0 0 0 0 0 0
0 0 0 0 0 0 0 0 0 0 0 0 0 0 0 0 0 0 0 0 0 0 0 0 0 0 0 0 0 0 0 0 0 0 0 0 0 0 0 0 0 0 0
0 0 0 0 0 0 0 0 0 0 0 0 0 0 0 0 0 0 0 0 0 0 0 0 0 0 0 0 0 0 0 0 0 0 0 0 0 0 0 0 0 0 0
0 0 0 0 0 0 0 0 0 0 0 0 0 0 0 0 0 0 0 0 0 0 0 0 0 0 0 0 0 0 0 0 0 0 0 0 0 0 0 0 0 0 0
Wind_Speed
3 3 3 2 2 1 0 1 1 2 2 2 3 3 4 4 4 4 3 12 16 16 16 16 16 16 16 16 16 16 16 16 15 14 15 15 15 15 15 14 13 12 12
3 4 4 3 3 2 1 0 1 1 1 1 2 2 3 3 4 4 4 7 14 16 16 16 17 17 17 17 17 16 16 17 15 15 15 15 15 16 16 15 14 13 12
4 3 3 4 3 3 3 2 2 1 1 1 2 2 2 2 3 4 4 4 5 12 16 16 16 16 17 17 18 17 17 16 16 16 15 15 16 16 16 15 15 14 13
4 4 4 4 4 4 3 3 3 2 2 2 2 2 2 2 3 4 4 4 4 5 10 16 16 16 17 18 18 18 18 17 17 17 17 16 17 17 16 16 16 15 14
5 4 3 3 4 4 4 3 3 2 2 3 3 2 2 2 3 4 5 6 6 6 6 10 16 16 18 19 19 18 18 18 18 19 19 18 18 18 17 17 17 16 15
4 4 3 4 5 4 4 3 3 3 2 2 3 3 3 3 3 4 5 5 5 7 7 7 7 11 17 17 17 18 19 19 19 20 20 20 20 19 18 18 18 17 17
4 4 3 3 4 4 4 4 3 4 3 3 3 4 4 3 3 3 3 3 4 5 6 7 6 5 6 15 17 18 19 19 19 20 20 21 21 20 20 19 19 18 18
4 4 4 3 3 3 5 5 4 3 3 4 2 2 4 5 4 3 3 2 2 2 3 6 6 6 5 4 8 17 18 19 19 20 20 21 21 21 21 21 20 19 19
4 4 4 3 3 3 3 3 3 3 2 3 2 2 2 2 4 4 4 4 4 2 2 2 4 6 6 5 5 11 17 18 20 21 20 20 21 21 21 22 22 21 20
3 4 4 4 3 2 2 2 2 2 2 2 2 1 1 3 1 4 4 4 5 4 4 3 3 3 4 4 6 10 14 16 19 21 21 20 21 21 22 23 24 23 22
2 4 5 4 3 2 2 1 1 2 1 1 1 1 1 1 1 1 3 5 5 3 3 4 3 3 3 4 5 8 13 15 15 17 18 19 20 22 23 24 25 25 25
1 4 5 4 3 2 2 1 0 1 0 0 0 0 0 0 1 0 2 3 4 4 4 3 3 3 3 3 6 9 11 12 13 14 14 15 17 20 22 24 26 26 26
2 4 4 4 3 3 3 2 1 1 1 1 1 1 1 2 2 2 2 2 3 4 4 3 3 3 3 3 4 8 9 10 11 12 13 13 14 16 19 22 24 25 25
3 4 5 5 4 4 3 3 2 2 2 2 2 2 2 2 2 2 2 1 2 3 3 4 3 3 3 3 4 6 5 8 9 11 12 12 13 14 16 17 20 22 23
3 5 5 5 5 5 4 4 3 3 3 3 3 3 2 2 2 2 2 2 2 2 3 4 3 4 4 3 5 3 4 7 9 10 11 12 12 13 14 15 16 18 19
4 5 5 5 5 5 5 4 4 4 4 4 3 4 3 3 3 2 2 2 3 3 3 3 3 4 4 4 5 4 5 8 9 10 11 12 12 12 12 13 14 15 17
5 5 6 5 5 5 5 5 5 5 5 5 4 4 5 4 3 3 2 2 2 3 3 4 3 3 3 5 5 4 5 5 5 10 11 11 11 11 12 12 13 14 15
6 6 6 6 6 6 5 6 6 6 6 6 6 5 6 4 4 4 3 3 3 3 4 5 3 3 4 4 5 5 5 5 5 8 11 11 12 12 12 12 13 14 15
6 6 6 6 6 6 6 6 6 6 6 7 6 6 6 5 5 4 4 4 4 4 3 3 4 3 3 3 4 4 5 4 5 6 9 11 12 12 12 13 13 14 14
7 7 7 7 7 7 6 6 6 6 6 6 6 6 6 6 7 6 5 5 5 4 4 3 4 3 3 3 2 3 4 3 4 4 5 6 8 10 12 13 13 14 14
8 7 7 7 6 6 6 7 6 6 6 6 5 6 6 9 10 8 6 5 5 4 4 4 4 3 3 3 2 2 2 3 4 2 3 3 3 4 5 9 12 13 14
7 6 7 7 7 6 8 10 8 6 5 6 6 6 6 8 10 11 12 11 9 7 6 5 4 5 6 4 3 2 2 2 4 3 2 4 2 4 5 5 9 12 13
7 7 7 7 7 8 11 11 12 7 6 6 7 6 6 7 8 6 7 9 9 12 12 8 7 8 6 6 4 4 4 4 4 4 2 4 3 4 5 6 11 12 13
6 6 7 7 7 8 11 12 13 8 7 7 7 7 7 8 8 8 7 7 7 7 8 8 8 9 9 7 6 6 5 4 4 4 2 3 4 4 4 4 9 13 13
7 7 6 7 8 8 11 13 12 5 6 8 8 8 8 8 12 13 8 8 8 7 10 13 12 12 12 12 8 3 3 3 4 4 3 3 4 4 3 4 5 9 11
8 7 7 7 8 9 11 13 13 5 6 7 6 7 12 12 13 12 8 7 9 9 7 6 7 8 8 9 11 8 6 5 4 4 4 4 3 2 3 3 2 3 5
Wind_Direction
40 21 10 9 2 353 233 218 224 221 218 219 221 218 215 209 208 210 224 215 203 201 201 200 198 198 198 197 196 195 194 193 189 185 183 180 178 177 177 175 172 170 168
50 32 22 16 7 360 343 243 245 236 241 244 256 244 228 218 213 213 223 222 214 208 208 208 206 204 204 203 202 201 199 198 195 192 189 186 183 183 182 181 180 178 175
60 48 30 14 1 3 13 25 23 36 25 342 286 269 247 237 228 222 217 216 218 218 216 215 214 210 209 209 208 207 204 202 198 196 194 191 189 187 187 186 185 184 182
70 57 39 17 7 23 27 40 41 43 30 13 321 293 282 272 258 242 225 217 214 220 222 222 220 217 216 215 215 213 210 206 201 199 198 196 194 192 191 190 189 188 187
75 69 51 26 25 32 24 24 40 44 25 354 313 296 293 276 267 259 243 226 215 214 215 225 224 222 221 222 221 219 216 212 207 203 202 201 200 197 196 195 194 192 192
84 78 63 38 35 35 21 18 26 28 27 344 330 332 304 288 279 262 252 242 222 217 215 221 224 228 226 225 225 224 223 218 213 210 207 205 204 202 200 199 198 197 196
100 89 73 52 44 42 27 19 23 22 8 2 17 344 331 328 316 290 269 252 238 227 214 215 214 216 225 227 226 225 226 224 220 216 212 209 207 205 203 203 202 201 200
133 118 102 82 60 48 33 33 40 35 3 18 39 23 350 342 337 341 344 326 278 249 226 221 214 212 212 210 222 226 227 228 227 222 218 215 211 207 205 205 205 204 203
152 134 125 110 83 73 53 47 55 65 23 355 35 85 65 315 313 323 347 2 349 322 283 253 225 218 212 209 218 230 231 231 231 229 226 220 216 211 207 207 206 206 206
171 155 140 127 109 96 79 50 73 75 71 13 357 36 167 197 253 318 326 343 344 340 322 300 268 239 220 213 217 223 232 234 233 234 233 227 221 215 211 209 209 208 208
192 169 153 143 132 122 117 83 60 54 81 96 345 340 354 11 94 147 312 327 333 329 324 302 286 270 245 226 219 226 230 233 233 235 235 232 227 221 216 213 213 212 211
183 173 162 158 157 157 165 173 147 22 358 295 262 220 105 359 323 1 281 303 310 305 312 318 312 291 267 244 237 234 229 229 232 235 236 235 234 229 223 219 217 216 215
179 184 169 175 182 191 197 197 209 263 276 269 256 246 224 220 214 201 225 276 294 298 316 320 320 316 301 272 253 248 238 230 227 230 233 234 237 236 231 224 221 220 218
195 191 183 190 200 204 210 202 209 239 235 252 262 250 243 252 223 205 207 234 310 313 315 300 309 320 324 305 276 265 261 247 237 232 232 234 236 237 234 229 224 222 220
189 182 188 197 210 214 218 213 223 239 242 248 253 251 245 249 240 227 206 181 186 280 294 293 308 318 321 310 295 277 264 260 253 243 237 236 236 237 234 229 225 222 219
186 182 196 204 214 221 222 218 228 237 238 248 241 246 252 249 252 244 227 205 181 192 250 274 274 288 310 316 308 291 275 272 261 251 243 239 236 236 236 232 226 223 220
203 201 205 208 215 223 224 220 230 235 236 246 250 244 251 249 249 251 244 235 220 193 240 271 266 285 300 305 309 298 281 267 265 260 250 243 237 233 233 232 229 227 223
210 209 208 211 219 222 220 217 228 231 227 234 241 241 249 251 246 245 241 243 243 227 225 266 281 291 290 291 291 294 286 275 261 263 255 247 238 232 230 229 228 226 224
212 213 208 213 221 222 219 219 221 226 226 228 230 230 238 238 245 244 240 241 243 251 228 240 266 270 281 290 305 301 295 289 279 268 256 248 242 236 232 230 228 226 224
209 214 215 217 220 220 220 221 220 224 229 232 229 227 230 226 233 238 242 239 237 246 245 245 258 268 274 288 302 306 316 312 296 287 268 255 248 243 238 234 231 228 225
214 214 216 222 223 220 223 218 218 222 224 231 234 233 234 236 236 233 234 231 230 233 235 239 254 266 270 284 277 281 294 304 299 295 308 289 267 253 241 238 235 231 227
217 215 218 221 223 226 224 216 205 210 212 218 231 240 248 254 255 252 251 245 227 222 224 227 237 241 251 246 248 255 272 315 304 304 332 295 268 261 251 233 234 231 228
215 217 222 221 226 231 230 226 219 209 213 220 226 235 250 252 252 249 260 266 258 244 227 217 226 235 240 234 230 249 244 237 244 266 306 285 279 266 256 243 235 232 232
210 217 223 225 229 236 232 231 228 217 218 226 226 226 234 249 253 245 248 255 254 252 240 228 224 233 235 233 220 228 236 247 258 263 229 261 274 267 267 252 238 228 228
213 215 216 221 227 240 238 235 226 211 224 234 234 231 231 241 250 249 245 249 256 259 254 240 230 234 239 240 230 222 236 241 266 268 225 229 258 267 265 257 247 231 224
216 218 224 222 225 235 239 235 223 206 225 238 240 238 237 240 249 250 237 235 247 253 249 252 245 249 247 249 241 219 216 223 236 259 238 212 241 243 273 269 252 232 222